{"data":{"norad_id":43108,"epoch":"2026-09-19T06:17:06.274752Z","epoch_age_seconds":121680,"freshness":"FRESH","line1":"1 43108U 18003B   26262.26187818 -.00000031  00000+0  00000+0 0  9990","line2":"2 43108  54.2335 299.0074 0004263 263.5699  96.4414  1.86231277 59117","mean_motion":1.86231277,"eccentricity":0.0004263,"inclination_deg":54.2335,"raan_deg":299.0074,"arg_perigee_deg":263.5699,"mean_anomaly_deg":96.4414,"bstar":0,"rev_number":5911,"period_min":773.23209248036,"perigee_km":21516.127495753,"apogee_km":21539.92028853,"semimajor_km":27906.160892141,"source":"CELESTRAK","updated_at":"2026-09-20T09:00:46.675733Z"}}